Home > Weather > Muyinga > Past weeks

Flag for Burundi Past Weather in Muyinga, Burundi — Yesterday and Last 2 Weeks

Now
64 °F

Scattered clouds.


Feels Like: 64 °F
Forecast: 57 / 77 °F
Wind: 1 mph from Southwest

Location: Kigali Airport

Current Time: Aug 25, 2016 at 6:45:58 AM

Latest Report: Aug 25, 2016 at 6:00 AM


Visibility: N/A

Pressure: 30.18 "Hg (24.58 "Hg at 1749m altitude)

Humidity: 52%

Dew Point: 46 °F

Location of MuyingaLocation

Past Weather in Muyinga — Graph

°F

Muyinga Temperature Yesterday

Maximum temperature yesterday: 82 °F (at 1:00 PM)
Minimum temperature yesterday: 64 °F (at 7:00 AM)
Average temperature yesterday: 73 °F

High & Low Weather Summary for the Past Weeks

 TemperatureHumidityPressure
High86 °F (Aug 14, 2:00 PM)88% (Aug 16, 12:30 AM)30.30 "Hg (Aug 16, 12:30 AM)
Low61 °F (Aug 11, 5:30 AM)22% (Aug 19, 4:00 PM)30.04 "Hg (Aug 13, 3:30 PM)
Average75 °F44%30.14 "Hg
* Reported Aug 10 7:00 AM — Aug 25 5:30 AM, Muyinga, Weather by CustomWeather, © 2016

Note: Actual official high and low records may vary slightly from our data, if they occured in-between our weather recording intervals... More about our weather records

Advertising

Muyinga Weather History for the Previous 24 Hours

Scroll right to see more
 ConditionsComfort  
Time TempWeatherWind HumidityBarometerVisibility
5:30 AM
Thu, Aug 25
64 °FPassing clouds.3 mph52%30.15 "HgN/A
3:00 AM66 °FPassing clouds.3 mph49%30.12 "HgN/A
2:00 AM68 °FPassing clouds.2 mph46%30.09 "HgN/A
1:30 AM68 °FPassing clouds.2 mph46%30.09 "HgN/A
12:00 AM70 °FPassing clouds.2 mph43%30.12 "HgN/A
11:30 PM
Wed, Aug 24
70 °FPassing clouds.5 mph40%30.15 "HgN/A
8:30 PM75 °FPassing clouds.2 mph31%30.12 "HgN/A
7:30 PM75 °FPassing clouds.5 mph31%30.09 "HgN/A
5:00 PM81 °FPassing clouds.14 mph26%30.04 "HgN/A
2:00 PM81 °FScattered clouds.3 mph30%30.07 "HgN/A
1:00 PM82 °FScattered clouds.6 mph28%30.12 "HgN/A
11:00 AM77 °FScattered clouds.7 mph42%30.21 "HgN/A
10:00 AM73 °FPartly sunny.14 mph44%30.21 "HgN/A
9:00 AM72 °FScattered clouds.9 mph47%30.21 "HgN/A
8:00 AM70 °FScattered clouds.5 mph53%30.21 "HgN/A
7:00 AM64 °FPartly sunny.3 mph73%30.18 "HgN/A
Weather by CustomWeather, © 2016

See weather overviewHow to use our weather pages